VLG98E LEIB-DAAG

Flight info

Callsign VLG98E
Flight time 0h 33m
Altitude 21000
Route INSUB N856 SADAF G30 ALR
Aircraft A321/M-SDE3FGHIRWY/LB1

Departure

Time 2026-05-08 23:03
Airport Ibiza Airport (LEIB)

Arrival

Time 2026-05-08 23:36
Airport Houari Boumediene Airport (DAAG)
Time Latitude Longitude Altitude Speed Heading
2026-05-08 22:56 38.87584 1.37303 9 ft 0 kts 332°
2026-05-08 22:58 38.87600 1.37291 9 ft 5 kts 331°
2026-05-08 22:58 38.87613 1.37234 8 ft 11 kts 263°
2026-05-08 22:58 38.87581 1.37147 8 ft 10 kts 241°
2026-05-08 22:58 38.87548 1.37070 8 ft 9 kts 242°
2026-05-08 22:59 38.87516 1.36990 8 ft 10 kts 243°
2026-05-08 22:59 38.87486 1.36916 8 ft 9 kts 243°
2026-05-08 22:59 38.87447 1.36822 9 ft 13 kts 237°
2026-05-08 22:59 38.87373 1.36827 9 ft 14 kts 148°
2026-05-08 23:00 38.87274 1.36829 9 ft 16 kts 229°
2026-05-08 23:00 38.87210 1.36674 9 ft 21 kts 243°
2026-05-08 23:00 38.87146 1.36512 9 ft 20 kts 243°
2026-05-08 23:00 38.87082 1.36356 8 ft 19 kts 241°
2026-05-08 23:01 38.87019 1.36208 8 ft 18 kts 241°
2026-05-08 23:01 38.86959 1.36068 9 ft 17 kts 241°
2026-05-08 23:01 38.86902 1.35935 8 ft 16 kts 242°
2026-05-08 23:01 38.86841 1.35827 8 ft 12 kts 195°
2026-05-08 23:02 38.86753 1.35864 6 ft 19 kts 148°
2026-05-08 23:02 38.86769 1.36067 7 ft 42 kts 65°
2026-05-08 23:02 38.87014 1.36663 9 ft 106 kts 62°
2026-05-08 23:02 38.87434 1.37693 20 ft 152 kts 66°
2026-05-08 23:03 38.87915 1.38960 450 ft 160 kts 64°
2026-05-08 23:03 38.88308 1.40280 1081 ft 158 kts 83°
2026-05-08 23:03 38.88154 1.41650 1672 ft 159 kts 116°
2026-05-08 23:03 38.87357 1.42714 1991 ft 177 kts 141°
2026-05-08 23:04 38.86299 1.43701 2168 ft 199 kts 141°
2026-05-08 23:04 38.85117 1.44796 2323 ft 221 kts 142°
2026-05-08 23:04 38.83813 1.46000 2649 ft 239 kts 142°
2026-05-08 23:04 38.82403 1.47299 3175 ft 255 kts 142°
2026-05-08 23:05 38.80944 1.48643 3967 ft 261 kts 143°
2026-05-08 23:05 38.79481 1.49995 4775 ft 265 kts 144°
2026-05-08 23:05 38.77978 1.51387 5598 ft 268 kts 145°
2026-05-08 23:05 38.76446 1.52806 6435 ft 270 kts 146°
2026-05-08 23:06 38.74908 1.54232 7159 ft 275 kts 146°
2026-05-08 23:06 38.73365 1.55662 7906 ft 279 kts 147°
2026-05-08 23:06 38.71779 1.57128 8677 ft 282 kts 148°
2026-05-08 23:06 38.70183 1.58603 9444 ft 285 kts 149°
2026-05-08 23:07 38.68565 1.60103 10178 ft 289 kts 149°
2026-05-08 23:07 38.66872 1.61661 10413 ft 311 kts 149°
2026-05-08 23:07 38.65047 1.63332 10561 ft 334 kts 149°
2026-05-08 23:07 38.63116 1.65104 10925 ft 347 kts 148°
2026-05-08 23:08 38.61144 1.66928 11529 ft 352 kts 148°
2026-05-08 23:08 38.59141 1.68784 12171 ft 357 kts 148°
2026-05-08 23:08 38.57119 1.70657 12825 ft 362 kts 148°
2026-05-08 23:08 38.55061 1.72558 13463 ft 367 kts 148°
2026-05-08 23:09 38.52982 1.74477 14062 ft 371 kts 148°
2026-05-08 23:09 38.50877 1.76417 14660 ft 374 kts 148°
2026-05-08 23:09 38.48759 1.78366 15293 ft 377 kts 148°
2026-05-08 23:09 38.46619 1.80331 15911 ft 379 kts 148°
2026-05-08 23:10 38.44470 1.82303 16518 ft 382 kts 148°
2026-05-08 23:10 38.42309 1.84283 17126 ft 384 kts 149°
2026-05-08 23:10 38.40158 1.86256 17711 ft 387 kts 149°
2026-05-08 23:10 38.37964 1.88265 18290 ft 390 kts 149°
2026-05-08 23:11 38.35749 1.90290 18791 ft 392 kts 149°
2026-05-08 23:11 38.33518 1.92294 19285 ft 393 kts 151°
2026-05-08 23:11 38.31214 1.94196 19771 ft 394 kts 153°
2026-05-08 23:11 38.28864 1.96007 20251 ft 396 kts 154°
2026-05-08 23:12 38.26474 1.97785 20731 ft 398 kts 155°
2026-05-08 23:12 38.24072 1.99562 21220 ft 400 kts 155°
2026-05-08 23:12 38.21688 2.01345 21705 ft 403 kts 155°
2026-05-08 23:12 38.19269 2.03177 22169 ft 406 kts 154°
2026-05-08 23:13 38.16845 2.05031 22607 ft 408 kts 154°
2026-05-08 23:13 38.14408 2.06901 22939 ft 409 kts 154°
2026-05-08 23:13 38.11972 2.08774 22991 ft 410 kts 154°
2026-05-08 23:13 38.09522 2.10656 22991 ft 411 kts 154°
2026-05-08 23:14 38.07080 2.12532 22999 ft 411 kts 154°
2026-05-08 23:14 38.04636 2.14407 22991 ft 411 kts 154°
2026-05-08 23:14 38.02190 2.16281 22998 ft 411 kts 154°
2026-05-08 23:14 37.99788 2.18119 22994 ft 411 kts 154°
2026-05-08 23:15 37.97341 2.19987 22999 ft 411 kts 154°
2026-05-08 23:15 37.94888 2.21852 22993 ft 410 kts 154°
2026-05-08 23:15 37.92445 2.23707 22980 ft 410 kts 154°
2026-05-08 23:15 37.90070 2.25511 22984 ft 410 kts 154°
2026-05-08 23:16 37.87623 2.27369 22975 ft 411 kts 154°
2026-05-08 23:16 37.85170 2.29230 22968 ft 411 kts 154°
2026-05-08 23:16 37.82713 2.31090 22975 ft 411 kts 154°
2026-05-08 23:16 37.80262 2.32949 22972 ft 411 kts 154°
2026-05-08 23:17 37.77839 2.34889 22964 ft 415 kts 149°
2026-05-08 23:17 37.75657 2.37304 22967 ft 421 kts 140°
2026-05-08 23:17 37.73684 2.40080 22977 ft 424 kts 135°
2026-05-08 23:17 37.71831 2.42907 22967 ft 424 kts 135°
2026-05-08 23:18 37.69944 2.45779 22969 ft 423 kts 135°
2026-05-08 23:18 37.67863 2.48350 22948 ft 415 kts 149°
2026-05-08 23:18 37.65429 2.50132 22562 ft 400 kts 160°
2026-05-08 23:18 37.62922 2.51590 22097 ft 392 kts 161°
2026-05-08 23:19 37.60440 2.52992 21649 ft 385 kts 161°
2026-05-08 23:19 37.58010 2.54344 21213 ft 378 kts 161°
2026-05-08 23:19 37.55626 2.55667 20790 ft 372 kts 161°
2026-05-08 23:19 37.53271 2.56975 20367 ft 367 kts 161°
2026-05-08 23:20 37.50949 2.58269 19952 ft 362 kts 161°
2026-05-08 23:20 37.48664 2.59550 19525 ft 358 kts 160°
2026-05-08 23:20 37.46401 2.60821 19102 ft 354 kts 160°
2026-05-08 23:20 37.44165 2.62080 18676 ft 351 kts 160°
2026-05-08 23:21 37.41940 2.63336 18254 ft 349 kts 160°
2026-05-08 23:21 37.39739 2.64576 17781 ft 346 kts 160°
2026-05-08 23:21 37.37528 2.65820 17333 ft 356 kts 160°
2026-05-08 23:21 37.35244 2.66965 16903 ft 356 kts 169°
2026-05-08 23:22 37.32802 2.67650 16459 ft 354 kts 172°
2026-05-08 23:22 37.30429 2.68291 16051 ft 352 kts 172°
2026-05-08 23:22 37.28036 2.68933 15616 ft 350 kts 172°
2026-05-08 23:22 37.25662 2.69568 15199 ft 347 kts 172°
2026-05-08 23:23 37.23310 2.70195 14794 ft 345 kts 172°
2026-05-08 23:23 37.20969 2.70815 14390 ft 342 kts 172°
2026-05-08 23:23 37.18649 2.71430 13986 ft 339 kts 172°
2026-05-08 23:23 37.16358 2.72038 13565 ft 336 kts 172°
2026-05-08 23:24 37.14073 2.72644 13127 ft 334 kts 172°
2026-05-08 23:24 37.11806 2.73244 12694 ft 331 kts 172°
2026-05-08 23:24 37.09559 2.73839 12266 ft 329 kts 172°
2026-05-08 23:24 37.07327 2.74431 11834 ft 327 kts 172°
2026-05-08 23:25 37.05106 2.75020 11419 ft 324 kts 172°
2026-05-08 23:25 37.02915 2.75602 11003 ft 320 kts 172°
2026-05-08 23:25 37.00746 2.76180 10594 ft 316 kts 172°
2026-05-08 23:25 36.98606 2.76748 10193 ft 313 kts 172°
2026-05-08 23:26 36.96494 2.77305 9791 ft 309 kts 172°
2026-05-08 23:26 36.94405 2.77856 9476 ft 302 kts 171°
2026-05-08 23:26 36.92421 2.78380 9347 ft 289 kts 171°
2026-05-08 23:26 36.90461 2.78898 9209 ft 278 kts 171°
2026-05-08 23:27 36.88610 2.79388 8881 ft 274 kts 171°
2026-05-08 23:27 36.86808 2.79862 8496 ft 273 kts 171°
2026-05-08 23:27 36.84955 2.80348 8089 ft 272 kts 170°
2026-05-08 23:27 36.83099 2.80833 7673 ft 272 kts 169°
2026-05-08 23:28 36.81226 2.81321 7056 ft 278 kts 169°
2026-05-08 23:28 36.79344 2.81814 6353 ft 274 kts 168°
2026-05-08 23:28 36.77504 2.82297 5640 ft 268 kts 167°
2026-05-08 23:28 36.75703 2.82772 5046 ft 260 kts 167°
2026-05-08 23:29 36.73966 2.83226 4550 ft 249 kts 167°
2026-05-08 23:29 36.72312 2.83677 4174 ft 233 kts 161°
2026-05-08 23:29 36.70959 2.84616 4147 ft 224 kts 136°
2026-05-08 23:29 36.70093 2.86181 4113 ft 215 kts 113°
2026-05-08 23:30 36.69857 2.87927 4039 ft 201 kts 94°
2026-05-08 23:30 36.69834 2.89573 3971 ft 178 kts 94°
2026-05-08 23:30 36.69809 2.91002 3874 ft 153 kts 96°
2026-05-08 23:30 36.69783 2.92280 3798 ft 144 kts 95°
2026-05-08 23:31 36.69753 2.93529 3747 ft 144 kts 96°
2026-05-08 23:31 36.69722 2.94805 3581 ft 148 kts 95°
2026-05-08 23:31 36.69692 2.96066 3375 ft 145 kts 96°
2026-05-08 23:31 36.69663 2.97316 3182 ft 146 kts 95°
2026-05-08 23:32 36.69633 2.98587 2979 ft 147 kts 94°
2026-05-08 23:32 36.69603 2.99858 2776 ft 148 kts 92°
2026-05-08 23:32 36.69568 3.01146 2567 ft 149 kts 92°
2026-05-08 23:32 36.69536 3.02440 2365 ft 150 kts 91°
2026-05-08 23:33 36.69506 3.03738 2162 ft 149 kts 91°
2026-05-08 23:33 36.69475 3.05030 1894 ft 149 kts 92°
2026-05-08 23:33 36.69454 3.06307 1612 ft 145 kts 91°
2026-05-08 23:33 36.69435 3.07551 1334 ft 145 kts 91°
2026-05-08 23:34 36.69411 3.08806 1103 ft 145 kts 93°
2026-05-08 23:34 36.69378 3.10060 953 ft 144 kts 91°
2026-05-08 23:34 36.69378 3.11314 934 ft 145 kts 91°
2026-05-08 23:34 36.69337 3.12575 706 ft 144 kts 92°
2026-05-08 23:35 36.69288 3.13810 558 ft 143 kts 91°
2026-05-08 23:35 36.69262 3.15038 425 ft 142 kts 91°
2026-05-08 23:35 36.69227 3.16263 263 ft 141 kts 92°
2026-05-08 23:35 36.69196 3.17475 83 ft 136 kts 90°
2026-05-08 23:36 36.69174 3.18499 78 ft 92 kts 92°
2026-05-08 23:36 36.69159 3.19089 75 ft 54 kts 90°
2026-05-08 23:36 36.69150 3.19539 74 ft 49 kts 92°
2026-05-08 23:36 36.69195 3.19847 69 ft 28 kts 65°
2026-05-08 23:37 36.69252 3.19989 69 ft 17 kts 62°
2026-05-08 23:37 36.69289 3.20123 65 ft 16 kts 72°
2026-05-08 23:37 36.69306 3.20251 71 ft 14 kts 76°
2026-05-08 23:37 36.69386 3.20289 64 ft 12 kts
2026-05-08 23:38 36.69446 3.20249 70 ft 13 kts 283°
2026-05-08 23:38 36.69452 3.20115 70 ft 9 kts 271°
2026-05-08 23:38 36.69454 3.20040 70 ft 8 kts 271°
2026-05-08 23:38 36.69501 3.19983 65 ft 15 kts
2026-05-08 23:39 36.69615 3.19986 70 ft 16 kts
2026-05-08 23:39 36.69682 3.20014 62 ft 4 kts 69°
2026-05-08 23:39 36.69681 3.20042 62 ft 4 kts 90°
2026-05-08 23:39 36.69681 3.20070 67 ft 5 kts 88°
2026-05-08 23:40 36.69682 3.20111 63 ft 0 kts 89°
2026-05-08 23:40 36.69682 3.20113 63 ft 1 kts 89°
2026-05-08 23:40 36.69682 3.20121 63 ft 0 kts 89°